TimeEST,TemperatureF,Dew PointF,Humidity,Sea Level PressureIn,VisibilityMPH,Wind Direction,Wind SpeedMPH,Gust SpeedMPH,PrecipitationIn,Events,Conditions,WindDirDegrees,DateUTC
12:53 AM,30.9,28.9,92,30.03,8.0,Calm,Calm,-,N/A,,Mostly Cloudy,0,2013-02-15 05:53:00
1:40 AM,28.4,26.6,93,30.02,8.0,Calm,Calm,-,N/A,,Scattered Clouds,0,2013-02-15 06:40:00
1:53 AM,28.0,26.1,92,30.03,7.0,Calm,Calm,-,N/A,,Clear,0,2013-02-15 06:53:00
2:53 AM,26.1,24.1,92,30.02,7.0,Calm,Calm,-,N/A,,Partly Cloudy,0,2013-02-15 07:53:00
3:10 AM,26.6,24.8,93,30.02,6.0,Calm,Calm,-,N/A,,Mostly Cloudy,0,2013-02-15 08:10:00
3:38 AM,26.6,24.8,93,30.01,6.0,Calm,Calm,-,N/A,,Scattered Clouds,0,2013-02-15 08:38:00
3:53 AM,26.1,24.1,92,30.01,7.0,Calm,Calm,-,N/A,,Partly Cloudy,0,2013-02-15 08:53:00
4:34 AM,24.8,21.2,86,30.02,1.0,Calm,Calm,-,N/A,,Mist,0,2013-02-15 09:34:00
4:37 AM,24.8,23.0,93,30.02,0.2,Calm,Calm,-,N/A,Fog,Light Freezing Fog,0,2013-02-15 09:37:00
4:53 AM,25.0,24.1,96,30.02,0.5,Calm,Calm,-,N/A,Fog,Light Freezing Fog,0,2013-02-15 09:53:00
5:21 AM,24.8,24.8,100,30.03,0.2,Calm,Calm,-,N/A,Fog,Light Freezing Fog,0,2013-02-15 10:21:00
5:40 AM,24.8,24.8,100,30.03,1.0,Calm,Calm,-,N/A,,Mist,0,2013-02-15 10:40:00
5:51 AM,28.4,28.4,100,30.03,2.0,Calm,Calm,-,N/A,,Scattered Clouds,0,2013-02-15 10:51:00
5:53 AM,28.9,28.0,96,30.03,1.5,Calm,Calm,-,N/A,,Partly Cloudy,0,2013-02-15 10:53:00
5:58 AM,28.4,28.4,100,30.03,0.8,Calm,Calm,-,N/A,,Mist,0,2013-02-15 10:58:00
6:16 AM,24.8,24.8,100,30.03,1.0,Calm,Calm,-,N/A,,Mist,0,2013-02-15 11:16:00
6:21 AM,24.8,21.2,86,30.03,2.0,Calm,Calm,-,N/A,,Scattered Clouds,0,2013-02-15 11:21:00
6:29 AM,24.8,21.2,86,30.03,5.0,Calm,Calm,-,N/A,,Partly Cloudy,0,2013-02-15 11:29:00
6:40 AM,24.8,21.2,86,30.02,1.0,Calm,Calm,-,N/A,,Mist,0,2013-02-15 11:40:00
6:53 AM,23.0,21.9,96,30.03,1.8,Calm,Calm,-,N/A,,Partly Cloudy,0,2013-02-15 11:53:00
6:56 AM,23.0,21.2,93,30.03,3.0,Calm,Calm,-,N/A,,Partly Cloudy,0,2013-02-15 11:56:00
7:12 AM,24.8,23.0,93,30.03,2.0,NNW,3.5,-,N/A,,Scattered Clouds,340,2013-02-15 12:12:00
7:14 AM,24.8,23.0,93,30.03,1.8,Calm,Calm,-,N/A,,Mostly Cloudy,0,2013-02-15 12:14:00
7:36 AM,28.4,28.4,100,30.02,0.8,Calm,Calm,-,N/A,,Mostly Cloudy,0,2013-02-15 12:36:00
7:49 AM,33.8,33.8,100,30.03,1.2,SW,3.5,-,N/A,,Scattered Clouds,230,2013-02-15 12:49:00
7:50 AM,33.1,33.1,100,30.03,1.2,SW,4.6,-,N/A,,Scattered Clouds,220,2013-02-15 12:50:00
8:02 AM,37.4,37.4,100,30.03,2.5,SSW,6.9,-,N/A,,Partly Cloudy,210,2013-02-15 13:02:00
8:11 AM,37.4,37.4,100,30.04,3.0,SSW,10.4,-,N/A,,Clear,210,2013-02-15 13:11:00
8:53 AM,39.9,37.0,89,30.05,4.0,SW,6.9,-,N/A,,Clear,220,2013-02-15 13:53:00
9:53 AM,42.1,37.0,82,30.05,6.0,SSW,11.5,-,N/A,,Haze,200,2013-02-15 14:53:00
10:53 AM,44.1,36.0,73,30.04,8.0,SSW,9.2,18.4,N/A,,Clear,210,2013-02-15 15:53:00
11:53 AM,45.0,36.0,71,30.02,10.0,SSW,15.0,20.7,N/A,,Clear,210,2013-02-15 16:53:00
12:53 PM,46.0,37.0,71,30.00,10.0,SW,9.2,16.1,N/A,,Clear,220,2013-02-15 17:53:00
1:53 PM,46.0,37.9,73,29.99,10.0,WSW,8.1,-,N/A,,Clear,250,2013-02-15 18:53:00
2:53 PM,45.0,37.0,74,29.98,10.0,SW,6.9,-,N/A,,Clear,230,2013-02-15 19:53:00
3:53 PM,44.1,37.9,79,29.96,10.0,SW,8.1,-,N/A,,Clear,220,2013-02-15 20:53:00
4:53 PM,43.0,39.0,86,29.96,9.0,SW,8.1,16.1,N/A,,Clear,230,2013-02-15 21:53:00
5:53 PM,41.0,37.9,89,29.96,10.0,SW,4.6,-,N/A,,Clear,230,2013-02-15 22:53:00
7:53 PM,36.0,35.1,97,29.96,7.0,Calm,Calm,-,N/A,,Clear,0,2013-02-16 00:53:00
8:53 PM,32.0,32.0,100,29.96,3.0,Calm,Calm,-,N/A,,Clear,0,2013-02-16 01:53:00
9:53 PM,30.0,30.0,100,29.96,2.5,Calm,Calm,-,N/A,,Clear,0,2013-02-16 02:53:00
9:57 PM,30.2,28.4,93,29.96,1.0,Calm,Calm,-,N/A,,Mist,0,2013-02-16 02:57:00
10:02 PM,28.4,28.4,100,29.96,0.5,Calm,Calm,-,N/A,Fog,Light Freezing Fog,0,2013-02-16 03:02:00
10:09 PM,30.2,30.2,100,29.96,1.0,Calm,Calm,-,N/A,,Scattered Clouds,0,2013-02-16 03:09:00
10:20 PM,30.2,30.2,100,29.96,2.5,Calm,Calm,-,N/A,,Mostly Cloudy,0,2013-02-16 03:20:00
10:30 PM,30.2,30.2,100,29.95,0.8,Calm,Calm,-,N/A,,Overcast,0,2013-02-16 03:30:00
10:53 PM,30.0,30.0,100,29.95,0.2,Calm,Calm,-,N/A,Fog,Light Freezing Fog,0,2013-02-16 03:53:00
11:07 PM,30.2,30.2,100,29.94,0.2,Calm,Calm,-,N/A,Fog,Light Freezing Fog,0,2013-02-16 04:07:00
11:33 PM,30.2,30.2,100,29.94,1.0,Calm,Calm,-,N/A,,Mostly Cloudy,0,2013-02-16 04:33:00
11:39 PM,30.2,30.2,100,29.95,3.0,Calm,Calm,-,N/A,,Mostly Cloudy,0,2013-02-16 04:39:00
11:45 PM,30.2,30.2,100,29.94,2.5,Calm,Calm,-,N/A,,Mostly Cloudy,0,2013-02-16 04:45:00
11:53 PM,30.0,30.0,100,29.95,1.2,Calm,Calm,-,N/A,,Mostly Cloudy,0,2013-02-16 04:53:00
11:59 PM,30.2,30.2,100,29.95,0.2,Calm,Calm,-,N/A,Fog,Light Freezing Fog,0,2013-02-16 04:59:00